�_�ʐ�͌���@�\�w���ɂ��Y���u�C�̈ړ���,,,,,,,,
�@,Time,Lat.,,Long.,,Direction,Speed,
Date(yy/mm/dd),(hh:mm),(deg),(min),(deg),(min),(deg),(m/s),(knots)
2004/8/29,9:40,36,45.954,137,13.17,,,
2004/8/29,9:45,36,45.972,137,13.152,319.1,0.13,0.26
2004/8/29,9:50,36,45.996,137,13.152,9.4,0.14,0.27
2004/8/29,9:55,36,46.002,137,13.14,298.3,0.06,0.11
2004/8/29,10:00,36,46.02,137,13.122,319.1,0.13,0.26
2004/8/29,10:05,36,46.038,137,13.116,352.1,0.1,0.2
2004/8/29,10:10,36,46.056,137,13.074,293.3,0.26,0.5
2004/8/29,10:15,36,46.056,137,13.044,270,0.19,0.36
2004/8/29,10:20,36,46.074,137,13.002,293.2,0.28,0.55
2004/8/29,10:25,36,46.092,137,12.978,306.9,0.19,0.36
2004/8/29,10:30,36,46.098,137,12.954,284,0.15,0.3
2004/8/29,10:40,36,46.116,137,12.882,284,0.23,0.45
2004/8/29,10:45,36,46.104,137,12.852,248.2,0.2,0.39
2004/8/29,10:55,36,46.092,137,12.81,254.1,0.13,0.26
2004/8/29,11:05,36,46.056,137,12.762,233.1,0.19,0.36
2004/8/29,11:15,36,46.044,137,12.714,264.2,0.14,0.27
2004/8/29,11:25,36,46.008,137,12.684,218.3,0.11,0.22
2004/8/29,11:30,36,45.984,137,12.66,225,0.18,0.34
2004/8/29,11:40,36,45.96,137,12.606,250.5,0.15,0.3
2004/8/29,11:45,36,45.954,137,12.576,261,0.16,0.3
2004/8/29,11:50,36,45.936,137,12.546,237.5,0.18,0.36
2004/8/29,11:55,36,45.918,137,12.528,219.3,0.13,0.25
2004/8/29,12:00,36,45.912,137,12.498,261,0.16,0.3


�A,Time,Lat.,,Long.,,Direction,Speed,
Date(yy/mm/dd),(hh:mm),(deg),(min),(deg),(min),(deg),(m/s),(knots)
2004/8/29,12:15,36,45.93,137,13.254,,,
2004/8/29,12:20,36,45.954,137,13.236,335.3,0.2,0.38
2004/8/29,12:25,36,45.972,137,13.206,312,0.21,0.41
2004/8/29,12:30,36,45.99,137,13.188,329.8,0.16,0.32
2004/8/29,12:35,36,46.008,137,13.188,11.8,0.14,0.28
2004/8/29,12:40,36,46.038,137,13.17,344.5,0.24,0.47
2004/8/29,12:45,36,46.044,137,13.164,6.7,0.08,0.16
2004/8/29,12:50,36,46.056,137,13.152,347.3,0.12,0.24
2004/8/29,12:55,36,46.062,137,13.116,295.6,0.19,0.38
2004/8/29,13:05,36,46.08,137,13.062,310.5,0.16,0.31
2004/8/29,13:10,36,46.086,137,13.032,301.3,0.16,0.31
2004/8/29,13:20,36,46.092,137,12.984,295.4,0.13,0.24
2004/8/29,13:25,36,46.086,137,12.942,269.5,0.22,0.44
2004/8/29,13:30,36,46.104,137,12.906,308,0.24,0.46
2004/8/29,13:35,36,46.098,137,12.858,270.9,0.26,0.5
2004/8/29,13:40,36,46.104,137,12.84,318.1,0.1,0.2


�B,Time,Lat.,,Long.,,Direction,Speed,
Date(yy/mm/dd),(hh:mm),(deg),(min),(deg),(min),(deg),(m/s),(knots)
2004/8/29,9:45,36,45.966,137,13.332,,,
2004/8/29,9:50,36,46.008,137,13.278,308.8,0.4,0.77
2004/8/29,9:55,36,46.032,137,13.224,294.1,0.34,0.66
2004/8/29,10:00,36,46.08,137,13.188,325.2,0.35,0.68
2004/8/29,10:10,36,46.116,137,13.122,299.3,0.21,0.4
2004/8/29,10:15,36,46.134,137,13.08,293.2,0.28,0.55
2004/8/29,10:25,36,46.164,137,13.008,292.6,0.24,0.47
2004/8/29,10:30,36,46.182,137,12.972,296.6,0.25,0.48
2004/8/29,10:40,36,46.194,137,12.912,281.3,0.19,0.37
2004/8/29,10:45,36,46.194,137,12.888,270,0.15,0.29
2004/8/29,10:55,36,46.212,137,12.834,288.4,0.18,0.34
2004/8/29,11:00,36,46.206,137,12.816,251.6,0.12,0.23
2004/8/29,11:05,36,46.206,137,12.798,270,0.11,0.22
2004/8/29,11:10,36,46.2,137,12.792,225,0.05,0.1
2004/8/29,11:15,36,46.194,137,12.768,264.2,0.14,0.27
2004/8/29,11:20,36,46.2,137,12.756,312.9,0.09,0.17
2004/8/29,11:25,36,46.194,137,12.738,261.2,0.09,0.17
2004/8/29,11:30,36,46.17,137,12.726,202.1,0.13,0.26
2004/8/29,11:35,36,46.158,137,12.702,247.9,0.13,0.26
2004/8/29,11:40,36,46.146,137,12.678,247.9,0.13,0.26
2004/8/29,11:45,36,46.134,137,12.654,242.4,0.13,0.26
2004/8/29,11:55,36,46.086,137,12.57,239.4,0.27,0.52
2004/8/29,12:00,36,46.044,137,12.528,222.8,0.34,0.65
2004/8/29,12:05,36,46.038,137,12.48,268.3,0.27,0.52


�C,Time,Lat.,,Long.,,Direction,Speed,
Date(yy/mm/dd),(hh:mm),(deg),(min),(deg),(min),(deg),(m/s),(knots)
2004/8/29,12:15,36,45.96,137,13.494,,,
2004/8/29,12:20,36,45.978,137,13.476,329.8,0.16,0.32
2004/8/29,12:25,36,46.02,137,13.452,337.6,0.31,0.61
2004/8/29,12:30,36,46.044,137,13.44,345.8,0.18,0.36
2004/8/29,12:40,36,46.104,137,13.428,2.4,0.23,0.45
2004/8/29,12:50,36,46.158,137,13.326,308.6,0.34,0.67
2004/8/29,12:55,36,46.182,137,13.29,318,0.26,0.51
2004/8/29,13:05,36,46.188,137,13.152,279.8,0.38,0.75
2004/8/29,13:10,36,46.194,137,13.08,281.9,0.41,0.79
2004/8/29,13:15,36,46.2,137,13.026,283.6,0.31,0.6
2004/8/29,13:20,36,46.194,137,12.936,269.8,0.52,1.01
2004/8/29,13:25,36,46.206,137,12.888,292.7,0.28,0.55
2004/8/29,13:30,36,46.206,137,12.834,276.7,0.3,0.58
2004/8/29,13:35,36,46.2,137,12.768,270.6,0.37,0.71
2004/8/29,13:45,36,46.17,137,12.672,258.6,0.26,0.51
2004/8/29,13:50,36,46.158,137,12.612,264.3,0.33,0.64
2004/8/29,13:55,36,46.146,137,12.57,261.4,0.22,0.43
2004/8/29,14:00,36,46.122,137,12.492,256.3,0.45,0.88
2004/8/29,14:10,36,46.11,137,12.444,272.1,0.11,0.21
2004/8/29,14:20,36,46.08,137,12.372,254.1,0.19,0.37
2004/8/29,14:25,36,46.068,137,12.366,173.1,0.03,0.06
2004/8/29,14:30,36,46.056,137,12.318,262.6,0.26,0.5
2004/8/29,14:40,36,46.038,137,12.24,265.8,0.2,0.39
